Pembrey Sands, United Kingdom

12:38 AM BST on March 27, 2017 (GMT +0100)
Pembrey Sands

Weather History for EGOP - December, 2012

Change the Weather History Date:

Wednesday, December 19, 2012

  Actual Average Record
Temperature  
Mean Temperature 46 °F -  
Max Temperature 49 °F - - ()
Min Temperature 42 °F - - ()
Degree Days  
Heating Degree Days 20    
Moisture  
Dew Point 44 °F    
Average Humidity 91    
Maximum Humidity 100    
Minimum Humidity 78    
Precipitation  
Precipitation 0.20 in - - ()
Sea Level Pressure  
Sea Level Pressure 29.78 in    
Wind  
Wind Speed 16 mph ()    
Max Wind Speed 23 mph    
Max Gust Speed 37 mph    
Visibility 4.7 miles    
Events Rain    
T = Trace of Precipitation, MM = Missing Value Source: Averaged Metar Reports

Daily Weather History Graph

Daily Weather History Graph

Search for Another Location

Airport or City:

Trip Planner

Search our weather history database for the weather conditions in past years. The results will help you decide how hot, cold, wet, or windy it might be!

Date:

Astronomy

Dec. 19, 2012 Rise Set
Actual Time 8:20 AM GMT 4:08 PM GMT
Civil Twilight 7:40 AM GMT 4:49 PM GMT
Nautical Twilight 6:56 AM GMT 5:32 PM GMT
Astronomical Twilight 6:15 AM GMT 6:13 PM GMT
Moon 11:37 AM GMT (12/19) No Moon Set
Length of Visible Light 9h 08m
Length of Day
7h 47m
Waxing Crescent, 42% of the Moon is Illuminated
Dec 19
Waxing Crescent
Dec 20
First Quarter
Dec 28
Full
Jan 5
Last Quarter
Jan 11
New

Hourly Weather History & Observations

Time (GMT) Temp. Windchill Dew Point Humidity Pressure Visibility Wind Dir Wind Speed Gust Speed Precip Events Conditions
12:50 AM 42.8 °F 35.4 °F 37.4 °F 81% 29.95 in 6.2 mi ESE 15.0 mph - N/A   Mostly Cloudy
1:50 AM 44.6 °F 37.2 °F 39.2 °F 81% 29.95 in 6.2 mi ESE 17.3 mph 29.9 mph N/A   Mostly Cloudy
2:50 AM 44 °F - 39 °F 78% 29.94 in 9 mi ESE 18.4 mph - -   Overcast
2:50 AM 44.6 °F 36.9 °F 39.2 °F 81% 29.92 in 6.2 mi ESE 18.4 mph 29.9 mph N/A   Overcast
3:50 AM 44.6 °F 37.2 °F 41.0 °F 87% 29.89 in 3.7 mi ESE 17.3 mph 28.8 mph N/A   Overcast
4:50 AM 44.6 °F 36.4 °F 41.0 °F 87% 29.86 in 5.0 mi ESE 20.7 mph 33.4 mph N/A   Mostly Cloudy
5:50 AM 45 °F - 42 °F 87% 29.85 in 5 mi ESE 20.7 mph - -   Scattered Clouds
5:50 AM 44.6 °F 36.4 °F 42.8 °F 93% 29.83 in 5.0 mi ESE 20.7 mph 32.2 mph N/A   Overcast
6:50 AM 44.6 °F 35.9 °F 42.8 °F 93% 29.83 in 4.3 mi ESE 23.0 mph 36.8 mph N/A   Overcast
7:50 AM 44.6 °F 36.6 °F 42.8 °F 93% 29.80 in 6.2 mi ESE 19.6 mph 31.1 mph N/A   Overcast
8:50 AM 45 °F - 43 °F 92% 29.81 in 3 mi ESE 20.7 mph - -   Scattered Clouds
8:50 AM 44.6 °F 36.4 °F 42.8 °F 93% 29.80 in 2.5 mi ESE 20.7 mph - N/A   Light Drizzle
9:50 AM 46.4 °F 38.7 °F 44.6 °F 93% 29.80 in 5.6 mi ESE 20.7 mph - N/A Rain Light Rain Showers
10:50 AM 46.4 °F 38.5 °F 44.6 °F 93% 29.80 in 6.2 mi ESE 21.9 mph 34.5 mph N/A   Mostly Cloudy
11:50 AM 47 °F - 45 °F 89% 29.80 in 7 mi ESE 19.6 mph - -   Scattered Clouds
11:50 AM 46.4 °F 39.0 °F 44.6 °F 93% 29.80 in 6.2 mi ESE 19.6 mph 32.2 mph N/A Rain Light Rain Showers
12:50 PM 46.4 °F 39.0 °F 44.6 °F 93% 29.77 in 1.9 mi ESE 19.6 mph 32.2 mph N/A Rain Rain
1:50 PM 46.4 °F 38.7 °F 44.6 °F 93% 29.77 in 2.5 mi ESE 20.7 mph - N/A Rain Light Rain
2:50 PM 47 °F - 46 °F 92% 29.76 in 7 mi ESE 21.9 mph - -   Scattered Clouds
2:50 PM 48.2 °F - 46.4 °F 93% 29.74 in 3.1 mi ESE 21.9 mph 33.4 mph N/A Rain Light Rain
3:50 PM 46.4 °F 39.5 °F 46.4 °F 100% 29.74 in 3.7 mi ESE 17.3 mph 32.2 mph N/A   Mostly Cloudy
4:50 PM 48.2 °F - 46.4 °F 93% 29.74 in 1.5 mi East 13.8 mph - N/A   Mostly Cloudy
5:50 PM 47 °F - 46 °F 96% 29.74 in 3 mi East 12.7 mph - -   Partly Cloudy
5:50 PM 48.2 °F - 46.4 °F 93% 29.74 in 3.1 mi East 12.7 mph - N/A   Mostly Cloudy
6:50 PM 48.2 °F - 46.4 °F 93% 29.71 in 6.2 mi East 12.7 mph - N/A   Overcast
7:50 PM 48.2 °F - 46.4 °F 93% 29.71 in 3.1 mi East 12.7 mph - N/A   Mostly Cloudy
8:50 PM 48 °F - 47 °F 94% 29.71 in 2 mi East 12.7 mph - -   Mostly Cloudy
8:50 PM 48.2 °F - 46.4 °F 93% 29.71 in - East 12.7 mph - N/A   Overcast
9:50 PM 48.2 °F - 46.4 °F 93% 29.68 in 3.1 mi ESE 12.7 mph - N/A   Mostly Cloudy
10:50 PM 48.2 °F - 48.2 °F 100% 29.65 in 6.2 mi East 10.4 mph - N/A   Overcast
11:50 PM 49 °F - 47 °F 92% 29.65 in 7 mi East 5.8 mph - -   Mostly Cloudy
11:50 PM 48.2 °F - 48.2 °F 100% 29.65 in 6.2 mi East 5.8 mph - N/A   Mostly Cloudy